User: anonymous   Login
Location: ???????
(55.4362°N, 38.1183°E)
Time: 00:55:19
(UTC+00:00)
Language:

NOSS 0 Rocket - Orbit

View from above orbital plane
View from above orbital plane
View from above satellite
View from above satellite

Ground track
Ground track

The orbit data is extracted from the following two-line orbital elements,

1 05679U 71110B   21267.76542758 -.00000025  00000-0  22906-4 0  9990
2 05679  69.9994  26.2476 0012208 178.7941 181.3191 13.85359695130228
Epoch (UTC): 24 September 2021 18:22:12
Eccentricity: 0.0012208
inclination: 69.9994°
perigee height: 936 km
apogee height: 954 km
right ascension of ascending node: 26.2476°
argument of perigee: 178.7941°
revolutions per day: 13.85359695
mean anomaly at epoch: 181.3191°
orbit number at epoch: 13022

The dashed part of the orbit path shows where the satellite is in the earth's shadow,  

DLR